Погода в Харьковке

Россия / Волгоградская область     50°25′27″N   46°49′01″E
темп.,
°C
ветер,
м/с
пор.,
м/с
влажн.,
%
обл.,
%
осадки,
мм/ч
давл.,
гПа
погр.,
м
6 марта, сб
сб600:00−3с2389100 0.0 101450
03:00−5с2389100 0.0 101529
06:00−5ссв2289100 0.0 101536
09:00−4св3487100 0.0 1016171
12:00−3св3482100 0.0 1015294
15:00−3св4686100 0.0 1014373
18:00−4св4795100 0.1 1013313
21:00−5ссв4795100 0.8 1012331
7 марта, вс
вс700:00−5ссв5895100 0.5 1012332
03:00−7с4794100 0.6 1013223
06:00−10ссз358942 0.0 101585
09:00−7зсз238934 0.0 1017194
12:00−4з468265 0.0 1017665
15:00−4зюз587452 0.0 1016731
18:00−5ююз5128267 0.0 1014312
21:00−4ююз8158083 0.0 1012640
8 марта, пн
пн800:00−3юз91780100 0.0 1009835
03:00−3юз101782100 0.0 1008845
06:00−3юз81586100 0.0 1007629
09:00−2юз9148797 0.0 1007775
12:000юз91486100 0.1 10061129
15:000юз101592100 0.5 10051112
18:000юз71583100 0.1 1006668
21:00−5зсз5117699 0.6 1009621
9 марта, вт
вт900:00−8з488467 0.0 1011219
03:00−9з478933 0.0 1012170
06:00−10з35900 0.0 1014103
09:00−8з368611 0.0 1015335
12:00−5з45770 0.0 1015649
15:00−4зсз357731 0.0 1014750
18:00−7зсз3486100 0.1 101452
21:00−8сз348981 0.1 101657
10 марта, ср
ср1000:00−9сз479198 0.0 1017405
03:00−11сз489066 0.0 1018242
06:00−13сз58900 0.0 1020267
09:00−12сз47830 0.0 1022477
12:00−10зсз467528 0.0 1023716
15:00−9з467127 0.0 1022774
18:00−9зюз237957 0.0 102142
21:00−9ю488379 0.0 1021184